Location: Marquette
(46.5440°N, 87.3950°W)
Time: 19:23:33
(UTC-04:00)

Daily predictions for brighter satellites

Satellite Brightness Start Highest point End
(mag) Time Altitude Azimuth Time Altitude Azimuth Time Altitude Azimuth
Cosmos 2082 3.7 21:04:48 10° NNW 21:10:27 74° ENE 21:16:04 10° SSE
Cosmos 2084 4.1 21:06:44 10° NNW 21:10:30 39° NE 21:14:27 10° ESE
Cosmos 1536 3.5 21:06:37 10° SSW 21:10:34 61° W 21:14:34 10° N
Meteor 1-5 Rocket 4.1 21:06:06 10° S 21:11:22 66° E 21:16:51 10° NNE
Cosmos 2297 Rocket 2.4 21:06:02 10° NNW 21:11:39 60° ENE 21:17:14 10° SE
ALOS 2.3 21:07:41 10° SSE 21:12:21 84° ENE 21:17:04 10° NNW
Cosmos 220 Rocket 4.3 21:11:57 10° NNW 21:16:03 47° ENE 21:20:08 10° SE
RESURS DK-1 3.8 21:14:28 10° N 21:17:54 24° NE 21:21:19 10° ESE
Cosmos 1934 Rocket 4.0 21:15:18 10° S 21:21:26 83° E 21:27:43 10° N
Resurs 01 Rocket 3.3 21:17:31 10° SSW 21:21:37 36° W 21:25:45 10° NNW
DELTA 2 R/B (1) 4.4 21:21:04 10° WSW 21:26:12 39° S 21:31:01 11° ESE
Cosmos 1515 4.3 21:23:15 10° N 21:26:53 38° ENE 21:30:29 10° SE
USA 186 1.6 21:24:01 10° SSE 21:27:13 87° W 21:30:12 10° NNW
NOSS 2-1 (D) 4.0 21:24:54 10° SW 21:28:49 65° NW 21:33:28 10° NE
NOSS 2-1 (C) 4.0 21:25:56 10° SW 21:29:50 65° NW 21:34:30 10° NE
Cosmos 1544 Rocket 4.0 21:26:32 10° SSW 21:30:52 68° W 21:35:18 10° N
ERS-1 Rocket 3.2 21:28:44 10° SE 21:33:34 51° ENE 21:38:26 10° N
Cosmos 1898 Rocket 3.7 21:33:23 10° NNW 21:38:38 57° ENE 21:43:26 12° SE
EP 1 4.0 21:36:54 10° SSW 21:39:22 74° SE 21:42:06 10° NE
OTV 4 2.9 21:38:31 10° SW 21:39:37 12° SSW 21:40:43 10° S
Cosmos 1743 4.1 21:40:01 15° SE 21:41:57 21° E 21:44:57 10° NE
Lacrosse 5 2.0 21:39:08 10° NW 21:44:12 66° NE 21:48:07 17° ESE
Cosmos 1066 Rocket 4.4 21:39:36 10° N 21:45:10 57° ENE 21:50:49 10° SSE
NOSS 2-1 (E) 4.5 21:42:01 10° WSW 21:45:57 52° NW 21:50:41 10° NNE
Tiangong 1 1.7 21:43:21 10° WSW 21:46:18 40° S 21:47:55 21° ESE
Cosmos 1697 Rocket 3.1 21:46:48 10° S 21:52:02 40° ESE 21:57:17 10° NE
SPOT 5 3.5 21:50:57 17° SE 21:54:21 39° ENE 21:58:49 10° N
EO 1 Delta rocket 4.4 21:50:34 10° N 21:55:10 66° WNW 22:00:16 10° SSW
Cosmos 1975 2.8 21:52:14 10° S 21:56:21 86° E 22:00:29 10° N
Cosmos 2278 3.9 21:51:15 10° SSW 21:56:56 76° WNW 22:02:40 10° NNE
Cosmos 468 Rocket 4.2 21:54:02 10° S 21:58:55 47° ESE 22:03:50 10° NNE
SL-24 R/B - RUBIN 2 4.4 21:55:50 10° SSW 22:01:39 61° ESE 22:08:07 10° NE
Lacrosse 5 rocket 2.4 21:59:45 10° WNW 22:03:06 32° SW 22:05:31 15° S
Cosmos 2173 Rocket 4.2 21:58:08 10° SSE 22:04:15 52° E 22:10:22 10° NNE
USA 215 3.9 22:00:24 13° E 22:05:56 50° NNE 22:12:11 10° NW
Cosmos 972 Rocket 4.4 22:01:05 10° NNW 22:06:54 74° ENE 22:12:03 17° SSE
Cosmos 1814 Rocket 4.2 22:03:08 10° S 22:08:15 49° ESE 22:13:22 10° NNE
Cosmos 1605 Rocket 4.5 22:02:14 10° SSW 22:08:31 64° WNW 22:14:45 10° N
PSLV R/B 4.4 22:08:36 25° ENE 22:08:48 25° ENE 22:11:23 10° NNE
Cosmos 1825 Rocket 3.7 22:05:46 10° N 22:10:08 54° ENE 22:12:29 25° SE
Cosmos 2369 4.1 22:05:03 10° SW 22:10:41 67° WNW 22:16:24 10° NNE
CZ-4 DEB 3.7 22:11:15 13° S 22:13:53 45° W 22:16:57 10° NNW
Cosmos 1980 Rocket 2.7 22:09:27 10° S 22:14:38 38° ESE 22:19:52 10° NE
ARGOS 3.9 22:12:12 23° ESE 22:14:42 35° ENE 22:19:34 10° N
Cosmos 2100 Rocket 4.0 22:10:01 10° S 22:16:15 69° E 22:22:26 10° NNE
CZ-4 SHROUD 4.2 22:18:59 30° ENE 22:18:59 30° ENE 22:21:42 10° N
Cosmos 1953 Rocket 3.8 22:15:24 10° N 22:19:45 50° ENE 22:21:30 31° SE
Cosmos 2061 Rocket 4.0 22:14:01 10° S 22:20:15 67° E 22:26:28 10° NNE
H-2A R/B 1.8 22:23:38 28° SSE 22:25:47 88° ENE 22:29:57 10° NNW
Terra 3.4 22:28:05 19° ENE 22:28:59 20° ENE 22:32:23 10° NNE
Cosmos 1939 Rocket 3.6 22:26:45 16° S 22:29:55 54° W 22:34:02 10° NNW
Cosmos 1666 3.5 22:31:54 32° ENE 22:31:54 32° ENE 22:34:52 10° NNE
MetOp-B 4.1 22:28:30 27° SSE 22:31:26 73° ENE 22:36:48 10° N
deb Chang Zheng 4 3.5 22:31:50 10° NNE 22:36:20 80° ESE 22:39:28 19° S
Nimbus 7 Rocket 4.4 22:30:35 10° NNE 22:36:40 74° ESE 22:42:44 10° S
ASTEX 1 3.4 22:32:03 10° NNE 22:37:02 64° E 22:39:19 32° SSE
Cosmos 1758 Rocket 3.5 22:34:21 10° N 22:38:43 67° E 22:39:53 45° SE
Meteor 1-21 4.2 22:33:46 10° N 22:39:34 88° ENE 22:42:53 27° S
Cosmos 2227 Rocket 4.3 22:35:29 10° NW 22:39:44 22° W 22:43:57 10° SSW
Cosmos 2263 Rocket 3.4 22:35:13 10° N 22:39:56 27° NE 22:41:51 22° E
Cosmos 2228 3.9 22:41:50 31° ENE 22:41:50 31° ENE 22:45:04 10° NNE
Envisat 3.6 22:37:26 15° S 22:41:28 53° W 22:46:27 10° NNW
Cosmos 1500 4.4 22:38:45 10° SSW 22:42:19 41° WNW 22:45:56 10° N
Cosmos 1937 Rocket 3.9 22:38:20 10° NNW 22:43:31 59° WSW 22:46:32 25° S
Cosmos 1656 4.1 22:38:43 10° SW 22:44:17 63° WNW 22:49:49 10° NNE
Cosmos 2322 Rocket 3.3 22:48:05 25° E 22:48:05 25° E 22:51:31 10° NE
H-2A R/B 2.7 22:48:51 33° E 22:49:39 35° ENE 22:54:07 10° N
Cosmos 1725 Rocket 4.0 22:47:52 33° SSE 22:50:29 57° E 22:56:36 10° NNE
Cosmos 1459 Rocket 4.1 22:45:07 10° SSW 22:51:08 72° W 22:57:16 10° N
Cosmos 1340 3.1 22:48:37 10° NNW 22:52:22 59° W 22:53:18 43° SSW
Cosmos 2297 Rocket 4.2 22:50:54 10° NW 22:55:14 23° WSW 22:59:33 10° SSW
Cosmos 2360 4.2 22:53:09 33° S 22:55:33 57° ESE 23:01:11 10° NE
RESURS DK-1 3.4 22:52:13 10° NW 22:56:06 39° WSW 22:57:18 31° SSW
Cosmos 990 Rocket 4.4 22:52:28 10° NNW 22:57:39 60° WSW 22:59:50 33° S
Meteor 2-9 Rocket 4.1 22:56:00 42° SSE 22:57:42 63° E 23:03:02 10° NNE
Cosmos 2227 4.3 22:54:52 10° NNW 23:00:38 76° WSW 23:02:41 41° S
YAOGAN 6 3.1 23:01:27 49° SW 23:01:58 54° W 23:05:38 10° NNW
CZ-4B R/B 3.4 22:57:21 10° NNE 23:02:01 53° E 23:02:02 53° ESE
Cosmos 405 Rocket 3.8 22:58:49 10° N 23:01:31 32° NE 23:01:31 32° NE
Cosmos 2098 Rocket 3.9 22:58:17 26° S 23:02:26 78° E 23:08:12 10° NNE
CZ-4C R/B 4.2 23:02:38 41° ENE 23:02:38 41° ENE 23:06:47 10° N
Cosmos 2058 Rocket 3.0 23:03:28 63° SSE 23:04:09 81° E 23:08:42 10° N
SPOT 1/Viking Rocket 3.6 23:07:00 46° S 23:08:35 80° WSW 23:13:50 10° NNW
Cosmos 836 Rocket 4.4 23:11:33 60° SE 23:12:03 64° ESE 23:17:19 10° NNE
DELTA 2 DEB (DPAF) 4.4 23:12:19 53° ENE 23:12:19 53° ENE 23:16:37 10° N
Cosmos 1606 Rocket 4.2 23:11:06 28° SW 23:13:10 53° WNW 23:17:32 10° N
SL-19 R/B 4.0 23:07:45 10° NNE 23:13:19 86° ESE 23:15:14 42° SSW
Cosmos 2233 Rocket 4.0 23:15:54 51° SE 23:16:53 57° E 23:22:59 10° NNE
Cosmos 1743 4.5 23:15:07 16° SW 23:17:37 31° WNW 23:21:10 10° N
Tiangong 1 4.1 23:19:53 10° WSW 23:19:53 10° WSW 23:19:53 10° WSW
CARTOSAT-1 4.0 23:24:42 53° NE 23:24:42 53° NE 23:28:25 10° N
Cosmos 1763 Rocket 3.8 23:23:19 23° SW 23:26:28 63° WNW 23:31:32 10° NNE
Lacrosse 5 3.2 23:22:34 10° WNW 23:26:51 28° SW 23:27:19 27° SW
Cosmos 1125 Rocket 3.4 23:21:46 10° NNW 23:26:59 79° WSW 23:27:33 69° SSW
BREEZE-M DEB (TANK) 4.0 23:28:15 10° W 23:29:28 24° WSW 23:29:28 24° WSW
Cosmos 1697 Rocket 4.1 23:30:52 10° WSW 23:36:03 36° NW 23:41:17 10° NNE
SL-08 RB Rocket 4.3 23:39:37 50° WSW 23:39:55 50° W 23:44:27 10° NNW
SL-16 R/B 2.2 23:42:47 65° ENE 23:42:47 65° ENE 23:47:55 10° NNE
Cosmos 1375 Rocket 4.4 23:43:50 66° SE 23:44:11 68° ESE 23:50:45 10° NE
Cosmos 841 Rocket 4.3 23:45:13 23° SW 23:48:13 48° WNW 23:53:17 10° NNE
USA 215 3.1 23:47:44 62° SSE 23:48:47 74° SW 23:55:21 10° NW
Landsat 7 4.2 23:51:09 57° W 23:51:09 57° W 23:55:42 10° NNW
Cosmos 1707 4.3 23:48:30 10° N 23:50:46 32° N 23:50:46 32° N
Cosmos 1844 Rocket 4.2 23:48:14 10° N 23:52:47 25° NE 23:53:29 24° ENE
Cosmos 332 Rocket 4.4 23:54:42 52° NNE 23:54:42 52° NNE 23:58:25 10° NNE
ARGOS 4.2 23:53:43 32° SW 23:54:55 36° W 23:59:52 10° NNW
